Time,TemperatureF,DewpointF,PressureIn,WindDirection,WindDirectionDegrees,WindSpeedMPH,WindSpeedGustMPH,Humidity,HourlyPrecipIn,Conditions,Clouds,dailyrainin,SoftwareType,DateUTC
2013-01-28 00:04:00,11.5,0.0,19.99,North,0,1.0,5.0,100,0.00,,---,0.00,VWS V13.00,2013-01-28 05:04:00,
2013-01-28 14:30:00,16.6,0.0,19.99,West,270,8.0,20.0,100,0.00,,---,0.00,VWS V13.00,2013-01-28 19:30:00,
2013-01-28 15:00:00,16.9,0.0,19.99,WNW,292,7.0,19.0,100,0.00,,---,0.00,VWS V13.00,2013-01-28 20:00:00,
2013-01-28 15:30:00,17.1,0.0,19.99,WNW,292,6.0,18.0,100,0.00,,---,0.00,VWS V13.00,2013-01-28 20:30:00,
2013-01-28 16:00:00,17.3,0.0,19.99,WNW,292,6.0,17.0,100,0.00,,---,0.00,VWS V13.00,2013-01-28 21:00:00,
2013-01-28 16:30:00,16.4,0.0,19.99,NW,315,5.0,13.0,100,0.00,,---,0.00,VWS V13.00,2013-01-28 21:30:00,
2013-01-28 17:00:00,14.4,0.0,20.00,NW,315,3.0,10.0,100,0.00,,---,0.00,VWS V13.00,2013-01-28 22:00:00,
2013-01-28 17:30:00,13.4,0.0,19.99,NW,315,2.0,11.0,100,0.00,,---,0.00,VWS V13.00,2013-01-28 22:30:00,
2013-01-28 18:00:00,12.4,0.0,19.99,NNW,338,2.0,7.0,100,0.00,,---,0.00,VWS V13.00,2013-01-28 23:00:00,
2013-01-28 18:30:00,11.9,0.0,19.99,WNW,292,3.0,12.0,100,0.00,,---,0.00,VWS V13.00,2013-01-28 23:30:00,
2013-01-28 19:00:00,11.4,0.0,19.99,West,270,1.0,6.0,100,0.00,,---,0.00,VWS V13.00,2013-01-29 00:00:00,
2013-01-28 19:30:00,10.8,0.0,19.99,West,270,2.0,6.0,100,0.00,,---,0.00,VWS V13.00,2013-01-29 00:30:00,
2013-01-28 20:00:00,10.3,0.0,19.99,NW,315,2.0,8.0,100,0.00,,---,0.00,VWS V13.00,2013-01-29 01:00:00,
2013-01-28 20:30:00,10.7,0.0,19.99,WNW,292,6.0,20.0,100,0.00,,---,0.00,VWS V13.00,2013-01-29 01:30:00,
2013-01-28 21:00:00,11.3,0.0,19.99,WNW,292,7.0,17.0,100,0.00,,---,0.00,VWS V13.00,2013-01-29 02:00:00,
2013-01-28 21:30:00,11.2,0.0,19.99,WNW,292,5.0,15.0,100,0.00,,---,0.00,VWS V13.00,2013-01-29 02:30:00,
2013-01-28 22:00:00,11.1,0.0,19.99,WNW,292,4.0,13.0,100,0.00,,---,0.00,VWS V13.00,2013-01-29 03:00:00,
2013-01-28 22:30:00,11.6,0.0,19.99,West,270,11.0,23.0,100,0.00,,---,0.00,VWS V13.00,2013-01-29 03:30:00,
2013-01-28 23:00:00,12.0,0.0,19.99,NW,315,6.0,16.0,100,0.00,,---,0.00,VWS V13.00,2013-01-29 04:00:00,
2013-01-28 23:30:00,12.3,0.0,20.00,WNW,292,4.0,17.0,100,0.00,,---,0.00,VWS V13.00,2013-01-29 04:30:00,